�������C�����ː����j�^�v���󋵏��
Date,Time,Cs137(Bq/L),Cs134(Bq/L),�S��(Bq/L)
2018/06/01,00:00,0.24,ND,ND
2018/06/01,00:10,0.21,ND,ND
2018/06/01,00:20,0.22,ND,ND
2018/06/01,00:30,0.22,ND,ND
2018/06/01,00:40,0.21,ND,ND
2018/06/01,00:50,0.20,ND,9.3
2018/06/01,01:00,0.18,ND,8.9
2018/06/01,01:10,0.19,ND,13
2018/06/01,01:20,0.20,ND,9.3
2018/06/01,01:30,0.20,ND,12
2018/06/01,01:40,0.21,ND,11
2018/06/01,01:50,0.22,ND,9.2
2018/06/01,02:00,0.25,ND,9.0
2018/06/01,02:10,0.26,ND,ND
2018/06/01,02:20,0.26,ND,ND
2018/06/01,02:30,0.29,ND,ND
2018/06/01,02:40,0.30,ND,ND
2018/06/01,02:50,0.31,ND,ND
2018/06/01,03:00,0.30,ND,ND
2018/06/01,03:10,0.30,ND,ND
2018/06/01,03:20,0.29,ND,ND
2018/06/01,03:30,0.26,ND,ND
2018/06/01,03:40,0.24,ND,ND
2018/06/01,03:50,0.22,ND,ND
2018/06/01,04:00,0.21,ND,ND
2018/06/01,04:10,0.18,ND,ND
2018/06/01,04:20,0.16,ND,ND
2018/06/01,04:30,0.15,ND,ND
2018/06/01,04:40,0.14,ND,ND
2018/06/01,04:50,0.12,ND,9.0
2018/06/01,05:00,0.14,ND,10
2018/06/01,05:10,0.15,ND,10
2018/06/01,05:20,0.12,ND,13
2018/06/01,05:30,0.13,ND,10
2018/06/01,05:40,0.17,ND,11
2018/06/01,05:50,0.18,ND,ND
2018/06/01,06:00,0.12,ND,ND
2018/06/01,06:10,0.12,ND,ND
2018/06/01,06:20,0.14,ND,ND
2018/06/01,06:30,0.13,ND,ND
2018/06/01,06:40,0.13,ND,ND
2018/06/01,06:50,0.12,ND,ND
2018/06/01,07:00,0.15,ND,ND
2018/06/01,07:10,0.14,ND,ND
2018/06/01,07:20,0.15,ND,ND
2018/06/01,07:30,0.16,ND,ND
2018/06/01,07:40,0.15,ND,ND
2018/06/01,07:50,0.17,ND,ND
2018/06/01,08:00,0.16,ND,ND
2018/06/01,08:10,0.17,ND,ND
2018/06/01,08:20,0.18,ND,ND
2018/06/01,08:30,0.17,ND,ND
2018/06/01,08:40,0.16,ND,ND
2018/06/01,08:50,0.16,ND,ND
2018/06/01,09:00,0.15,ND,ND
2018/06/01,09:10,0.16,ND,ND
2018/06/01,09:20,0.14,ND,ND
2018/06/01,09:30,0.15,ND,ND
2018/06/01,09:40,0.16,ND,ND
2018/06/01,09:50,0.14,ND,ND
2018/06/01,10:00,0.14,ND,ND
2018/06/01,10:10,0.14,ND,ND
2018/06/01,10:20,0.15,ND,ND
2018/06/01,10:30,0.14,ND,ND
2018/06/01,10:40,0.16,ND,ND
2018/06/01,10:50,0.17,ND,9.0
2018/06/01,11:00,0.17,ND,ND
2018/06/01,11:10,0.17,ND,ND
2018/06/01,11:20,0.15,ND,ND
2018/06/01,11:30,0.15,ND,ND
2018/06/01,11:40,0.15,ND,ND
2018/06/01,11:50,0.15,ND,ND
2018/06/01,12:00,0.14,ND,ND
2018/06/01,12:10,0.15,ND,8.8
2018/06/01,12:20,0.15,ND,ND
2018/06/01,12:30,0.15,ND,ND
2018/06/01,12:40,0.15,ND,ND
2018/06/01,12:50,0.14,ND,ND
2018/06/01,13:00,0.20,ND,ND
2018/06/01,13:10,0.21,ND,ND
2018/06/01,13:20,0.15,ND,ND
2018/06/01,13:30,0.14,ND,ND
2018/06/01,13:40,0.13,ND,9.6
2018/06/01,13:50,0.13,ND,ND
2018/06/01,14:00,0.11,ND,ND
2018/06/01,14:10,0.10,ND,8.8
2018/06/01,14:20,0.13,ND,ND
2018/06/01,14:30,0.12,ND,ND
2018/06/01,14:40,0.12,ND,ND
2018/06/01,14:50,0.12,ND,ND
2018/06/01,15:00,0.13,ND,ND
2018/06/01,15:10,0.12,ND,ND
2018/06/01,15:20,0.10,ND,ND
2018/06/01,15:30,0.11,ND,ND
2018/06/01,15:40,0.13,ND,ND
2018/06/01,15:50,0.12,ND,ND
2018/06/01,16:00,0.13,ND,ND
2018/06/01,16:10,0.12,ND,ND
2018/06/01,16:20,0.13,ND,ND
2018/06/01,16:30,0.11,ND,ND
2018/06/01,16:40,0.10,ND,ND
2018/06/01,16:50,0.12,ND,ND
2018/06/01,17:00,0.11,ND,ND
2018/06/01,17:10,0.12,ND,ND
2018/06/01,17:20,0.11,ND,ND
2018/06/01,17:30,0.11,ND,ND
2018/06/01,17:40,0.095,ND,ND
2018/06/01,17:50,0.081,ND,ND
2018/06/01,18:00,0.078,ND,ND
2018/06/01,18:10,0.069,ND,ND
2018/06/01,18:20,0.060,ND,ND
2018/06/01,18:30,0.069,ND,ND
2018/06/01,18:40,0.065,ND,ND
2018/06/01,18:50,0.058,ND,ND
2018/06/01,19:00,0.069,ND,ND
2018/06/01,19:10,0.075,ND,ND
2018/06/01,19:20,0.072,ND,ND
2018/06/01,19:30,0.076,ND,ND
2018/06/01,19:40,0.072,ND,ND
2018/06/01,19:50,0.073,ND,ND
2018/06/01,20:00,0.061,ND,ND
2018/06/01,20:10,0.076,ND,ND
2018/06/01,20:20,0.10,ND,ND
2018/06/01,20:30,0.090,ND,11
2018/06/01,20:40,0.096,ND,12
2018/06/01,20:50,0.082,ND,11
2018/06/01,21:00,0.082,ND,ND
2018/06/01,21:10,0.078,ND,ND
2018/06/01,21:20,0.063,ND,ND
2018/06/01,21:30,0.079,ND,ND
2018/06/01,21:40,0.088,ND,ND
2018/06/01,21:50,0.11,ND,ND
2018/06/01,22:00,0.12,ND,ND
2018/06/01,22:10,0.12,ND,ND
2018/06/01,22:20,0.12,ND,ND
2018/06/01,22:30,0.14,ND,ND
2018/06/01,22:40,0.14,ND,ND
2018/06/01,22:50,0.14,ND,ND
2018/06/01,23:00,0.14,ND,ND
2018/06/01,23:10,0.16,ND,ND
2018/06/01,23:20,0.15,ND,ND
2018/06/01,23:30,0.17,ND,ND
2018/06/01,23:40,0.17,ND,ND
2018/06/01,23:50,0.16,ND,ND
